User: anonymous   Login
Location: Byszew
(52.1813°N, 19.2693°E)
Time: 04:08:24
(UTC+00:00)
Language:

CZ-2C R/B - Orbit

View from above orbital plane
View from above orbital plane
View from above satellite
View from above satellite

Ground track
Ground track

The orbit data is extracted from the following two-line orbital elements,

1 31114U 07010B   21125.46979448  .00000023  00000-0  29057-4 0  9992
2 31114  98.2354 322.2010 0060648  48.9946 311.6454 14.19359018728683
Epoch (UTC): 05 May 2021 11:16:30
Eccentricity: 0.0060648
inclination: 98.2354°
perigee height: 784 km
apogee height: 871 km
right ascension of ascending node: 322.2010°
argument of perigee: 48.9946°
revolutions per day: 14.19359018
mean anomaly at epoch: 311.6454°
orbit number at epoch: 72868

The dashed part of the orbit path shows where the satellite is in the earth's shadow,  

DLR